Location: *
(43.4667°N, 11.6833°E)
Time: 22:47:50
(UTC+00:00)

Cosmos 44 Rocket - Pass Details

Date: 19 July 2019
Orbit: 651 x 739 km, 65.1° (Epoch: 21 August)

Event Time Altitude Azimuth Distance (km) Brightness Sun altitude
Rises 20:31:40 0° 229° (SW) 3,155 6.7 -15.1°
Reaches altitude 10° 20:34:07 10° 235° (SW) 2,230 6.0 -15.4°
Maximum altitude 20:39:03 48° 309° (NW) 950 4.5 -15.9°
Drops below altitude 10° 20:43:55 10° 24° (NNE) 2,200 6.2 -16.5°
Sets 20:46:21 0° 30° (NNE) 3,109 7.0 -16.8°
